TimeEDT,TemperatureF,Dew PointF,Humidity,Sea Level PressureIn,VisibilityMPH,Wind Direction,Wind SpeedMPH,Gust SpeedMPH,PrecipitationIn,Events,Conditions,WindDirDegrees,DateUTC
12:02 AM,64.4,62.6,94,29.71,2.5,South,5.8,-,N/A,,Overcast,190,2013-08-10 04:02:00
12:07 AM,64.4,62.6,94,29.70,1.5,South,5.8,-,N/A,,Overcast,180,2013-08-10 04:07:00
12:14 AM,64.4,62.6,94,29.70,1.0,South,6.9,-,N/A,,Mist,180,2013-08-10 04:14:00
12:29 AM,64.4,62.6,94,29.69,1.8,South,8.1,-,N/A,,Overcast,180,2013-08-10 04:29:00
12:46 AM,64.4,62.6,94,29.68,3.0,South,8.1,-,N/A,,Overcast,180,2013-08-10 04:46:00
12:53 AM,64.0,63.0,96,29.67,5.0,South,6.9,-,N/A,,Overcast,190,2013-08-10 04:53:00
1:03 AM,64.4,62.6,94,29.67,1.8,SSE,6.9,-,N/A,,Overcast,160,2013-08-10 05:03:00
1:08 AM,64.4,62.6,94,29.66,0.8,SSE,8.1,-,N/A,,Mist,160,2013-08-10 05:08:00
1:53 AM,64.0,63.0,96,29.65,0.2,South,6.9,-,N/A,Fog,Fog,190,2013-08-10 05:53:00
2:53 AM,63.0,63.0,100,29.64,0.5,South,6.9,-,N/A,Fog,Fog,190,2013-08-10 06:53:00
3:00 AM,62.6,62.6,100,29.65,1.8,South,5.8,-,N/A,,Overcast,190,2013-08-10 07:00:00
3:05 AM,62.6,62.6,100,29.65,3.0,South,5.8,-,N/A,,Overcast,190,2013-08-10 07:05:00
3:22 AM,62.6,62.6,100,29.64,1.8,South,4.6,-,N/A,,Overcast,170,2013-08-10 07:22:00
3:24 AM,62.6,62.6,100,29.64,1.2,South,5.8,-,N/A,,Overcast,180,2013-08-10 07:24:00
3:33 AM,62.6,62.6,100,29.64,0.5,South,5.8,-,N/A,Fog,Fog,190,2013-08-10 07:33:00
3:53 AM,63.0,62.1,97,29.63,0.2,SSW,5.8,-,N/A,Fog,Fog,200,2013-08-10 07:53:00
4:53 AM,62.1,61.0,96,29.62,0.2,SW,3.5,-,N/A,Fog,Fog,220,2013-08-10 08:53:00
5:07 AM,62.6,60.8,94,29.63,1.5,SW,8.1,-,N/A,,Mostly Cloudy,220,2013-08-10 09:07:00
5:10 AM,62.6,60.8,94,29.63,4.0,SW,5.8,-,N/A,,Mostly Cloudy,230,2013-08-10 09:10:00
5:22 AM,60.8,60.8,100,29.63,10.0,Calm,Calm,-,N/A,,Scattered Clouds,0,2013-08-10 09:22:00
5:44 AM,60.8,60.8,100,29.64,10.0,Variable,4.6,-,N/A,,Mostly Cloudy,0,2013-08-10 09:44:00
5:53 AM,61.0,60.1,97,29.63,10.0,SW,8.1,-,N/A,,Scattered Clouds,220,2013-08-10 09:53:00
6:53 AM,62.1,61.0,96,29.62,7.0,SSW,5.8,-,0.01,,Clear,200,2013-08-10 10:53:00
7:53 AM,64.9,61.0,87,29.62,10.0,SW,12.7,21.9,N/A,,Scattered Clouds,230,2013-08-10 11:53:00
8:53 AM,64.9,55.9,73,29.61,10.0,WSW,19.6,23.0,0.00,,Scattered Clouds,250,2013-08-10 12:53:00
9:53 AM,66.0,48.9,54,29.63,10.0,WSW,26.5,36.8,N/A,,Partly Cloudy,250,2013-08-10 13:53:00
10:53 AM,64.0,48.9,58,29.65,10.0,WSW,23.0,29.9,N/A,,Mostly Cloudy,250,2013-08-10 14:53:00
11:53 AM,64.0,48.9,58,29.67,10.0,WSW,21.9,29.9,N/A,,Overcast,250,2013-08-10 15:53:00
12:53 PM,63.0,48.9,60,29.68,10.0,WSW,11.5,20.7,N/A,,Overcast,250,2013-08-10 16:53:00
1:53 PM,63.0,50.0,63,29.69,10.0,WSW,12.7,19.6,N/A,,Overcast,240,2013-08-10 17:53:00
2:53 PM,63.0,46.9,56,29.70,10.0,West,16.1,28.8,N/A,,Overcast,270,2013-08-10 18:53:00
3:53 PM,63.0,46.9,56,29.73,10.0,West,16.1,24.2,N/A,,Overcast,270,2013-08-10 19:53:00
4:53 PM,63.0,46.9,56,29.75,10.0,West,18.4,26.5,N/A,,Overcast,280,2013-08-10 20:53:00
5:53 PM,64.0,48.0,56,29.76,10.0,West,15.0,27.6,N/A,,Overcast,270,2013-08-10 21:53:00
6:53 PM,61.0,48.0,62,29.78,10.0,West,9.2,20.7,N/A,,Overcast,270,2013-08-10 22:53:00
7:53 PM,59.0,46.9,64,29.80,10.0,West,15.0,-,N/A,,Scattered Clouds,280,2013-08-10 23:53:00
8:53 PM,57.0,46.9,69,29.83,10.0,West,11.5,-,N/A,,Clear,280,2013-08-11 00:53:00
9:53 PM,55.9,46.0,69,29.83,10.0,West,11.5,-,N/A,,Clear,270,2013-08-11 01:53:00
10:53 PM,55.9,46.0,69,29.83,10.0,West,12.7,-,N/A,,Clear,270,2013-08-11 02:53:00
11:53 PM,54.0,46.0,75,29.84,10.0,West,10.4,-,N/A,,Clear,270,2013-08-11 03:53:00